COSMOS 252 DEB, 19294

Orbit data source: Space-Track

COSMOS 252 DEB, 19294 is space debris in LEO originally from a launch on Fri, 01 Nov 1968 UTC launched from the Tyuratam Missile And Space Complex (TTMTR). Debris objects in space refer to the collection of defunct objects orbiting the Earth. Examples of debris include non-operational satellites, rocket bodies, and fragments generated from explosions, collisions, or faulty payload assembly.

Loading next visibility...
Identifier
19294, 1968-097EE
Orbit
LEO
Country
Flag of CISCIS
Related business
Manufacturer
Unknown
Mission
Spacecraft
Bus & Motor
Unknown
Mass
Unknown
Launch date (UTC)
1968-11-01 (57 years ago)
Launch vehicle
Unknown
Launch site
Tyuratam Missile And Space Complex (TTMTR)
Object type
Payload
Rocket body
Debris
Shape & HBR
Unknown shape, 0.1 m
Radar Cross Section
Small (<0.1 m²)

Expand to show TLE details & history
Last TLE update: 12 hours ago

TLE from 12 hours ago
0 COSMOS 252 DEB
1 19294U 68097EE  26121.91302251  .00002613  00000-0  27575-2 0  9990
2 19294  62.2433  89.7472 0619088 308.0132  46.6494 13.14071366799193
Epoch: 2026-05-01T21:54Z
TLE epoch observation values (Epoch: 2026-05-01T21:54:45.144Z)
Latitude
-0.00012°
Longitude
-98.77943°
Altitude
903.108 km
Speed
7.549 km/s
True Right ascension
05h 58m 59s
True Declination
0° 00' 00"
Sunlit
Object was in daylight at epoch
Visualization orbit readout
Latitude
Unknown
Longitude
Unknown
Altitude
Unknown
Speed
Unknown
Apparent Right ascension
Unknown
Apparent Declination
Unknown
Sunlit
N/A
Visualization observer readout
Local Sidereal Time
17:21:50
Azimuth
Unknown
Elevation
Unknown
Doppler factor
Unknown
Orbital elements
Apogee altitude
1,675.987 km
Perigee altitude
736.883 km
Semi-major axis
7,584.572 km
Eccentricity
0.06191
Inclination
62.2433°
RAAN
89.7472°
Arg. of periapsis
308.0132°
True anomaly
52.08857°
Mean anomaly
46.6494°
Eccentric anomaly
49.34021°
Mean motion
3.28584 °/min
Orbital period
109.56 mins
BSTAR
0.0027575
Loading maneuver chart data...
Computing Atmospheric mass density...
Loading historical data...
Loading historical data...
Loading historical data...
Loading historical data...
Loading historical data...
Loading historical data...
Loading historical data...

Documentation

Showing up to 5 results
|